owner,sensor,date,latitude,longitude,vertical_datum,sea_water_temperature,qcFlag 
ENP,ioos.station.NOAA.NDBC:WIWF1:1,2019-11-01T00:00:00Z,25.5870,-81.0440,1.0,29.9,11111222 
ENP,ioos.station.NOAA.NDBC:WIWF1:1,2019-11-01T01:00:00Z,25.5870,-81.0440,1.0,29.86,11111222 
ENP,ioos.station.NOAA.NDBC:WIWF1:1,2019-11-01T02:00:00Z,25.5870,-81.0440,1.0,29.83,11111222 
ENP,ioos.station.NOAA.NDBC:WIWF1:1,2019-11-01T04:00:00Z,25.5870,-81.0440,1.0,29.78,11111222 
ENP,ioos.station.NOAA.NDBC:WIWF1:1,2019-11-01T06:00:00Z,25.5870,-81.0440,1.0,29.48,11111222 
ENP,ioos.station.NOAA.NDBC:WIWF1:1,2019-11-01T07:00:00Z,25.5870,-81.0440,1.0,29.26,11111222 
ENP,ioos.station.NOAA.NDBC:WIWF1:1,2019-11-01T08:00:00Z,25.5870,-81.0440,1.0,28.92,11111222 
ENP,ioos.station.NOAA.NDBC:WIWF1:1,2019-11-01T09:00:00Z,25.5870,-81.0440,1.0,28.7,11111222 
ENP,ioos.station.NOAA.NDBC:WIWF1:1,2019-11-01T10:00:00Z,25.5870,-81.0440,1.0,28.73,11111222 
ENP,ioos.station.NOAA.NDBC:WIWF1:1,2019-11-01T11:00:00Z,25.5870,-81.0440,1.0,28.84,11111222 
ENP,ioos.station.NOAA.NDBC:WIWF1:1,2019-11-01T12:00:00Z,25.5870,-81.0440,1.0,28.92,11111222 
ENP,ioos.station.NOAA.NDBC:WIWF1:1,2019-11-01T13:00:00Z,25.5870,-81.0440,1.0,28.93,11111222 
ENP,ioos.station.NOAA.NDBC:WIWF1:1,2019-11-01T15:00:00Z,25.5870,-81.0440,1.0,29.06,11111222 
ENP,ioos.station.NOAA.NDBC:WIWF1:1,2019-11-01T16:00:00Z,25.5870,-81.0440,1.0,29.28,11111222 
ENP,ioos.station.NOAA.NDBC:WIWF1:1,2019-11-01T18:00:00Z,25.5870,-81.0440,1.0,29.43,11111222 
ENP,ioos.station.NOAA.NDBC:WIWF1:1,2019-11-01T19:00:00Z,25.5870,-81.0440,1.0,29.8,11111222 
ENP,ioos.station.NOAA.NDBC:WIWF1:1,2019-11-01T20:00:00Z,25.5870,-81.0440,1.0,30.25,11111222 
ENP,ioos.station.NOAA.NDBC:WIWF1:1,2019-11-01T21:00:00Z,25.5870,-81.0440,1.0,30.17,11111222 
ENP,ioos.station.NOAA.NDBC:WIWF1:1,2019-11-01T23:00:00Z,25.5870,-81.0440,1.0,30.13,11111222 
ENP,ioos.station.NOAA.NDBC:WIWF1:1,2019-11-02T00:00:00Z,25.5870,-81.0440,1.0,30.05,11111222 
ENP,ioos.station.NOAA.NDBC:WIWF1:1,2019-11-02T02:00:00Z,25.5870,-81.0440,1.0,29.91,11111222 
ENP,ioos.station.NOAA.NDBC:WIWF1:1,2019-11-02T04:00:00Z,25.5870,-81.0440,1.0,29.78,11111222 
ENP,ioos.station.NOAA.NDBC:WIWF1:1,2019-11-02T06:00:00Z,25.5870,-81.0440,1.0,29.31,11111222 
ENP,ioos.station.NOAA.NDBC:WIWF1:1,2019-11-02T07:00:00Z,25.5870,-81.0440,1.0,28.98,11111222 
ENP,ioos.station.NOAA.NDBC:WIWF1:1,2019-11-02T08:00:00Z,25.5870,-81.0440,1.0,28.36,11111222 
ENP,ioos.station.NOAA.NDBC:WIWF1:1,2019-11-02T09:00:00Z,25.5870,-81.0440,1.0,28.27,11111222 
ENP,ioos.station.NOAA.NDBC:WIWF1:1,2019-11-02T10:00:00Z,25.5870,-81.0440,1.0,28.18,11111222 
ENP,ioos.station.NOAA.NDBC:WIWF1:1,2019-11-02T11:00:00Z,25.5870,-81.0440,1.0,28.15,11111222 
ENP,ioos.station.NOAA.NDBC:WIWF1:1,2019-11-02T13:00:00Z,25.5870,-81.0440,1.0,28.3,11111222 
ENP,ioos.station.NOAA.NDBC:WIWF1:1,2019-11-02T14:00:00Z,25.5870,-81.0440,1.0,28.74,11111222 
ENP,ioos.station.NOAA.NDBC:WIWF1:1,2019-11-02T15:00:00Z,25.5870,-81.0440,1.0,28.83,11111222 
ENP,ioos.station.NOAA.NDBC:WIWF1:1,2019-11-02T16:00:00Z,25.5870,-81.0440,1.0,28.88,11111222 
ENP,ioos.station.NOAA.NDBC:WIWF1:1,2019-11-02T18:00:00Z,25.5870,-81.0440,1.0,28.91,11111222 
ENP,ioos.station.NOAA.NDBC:WIWF1:1,2019-11-02T19:00:00Z,25.5870,-81.0440,1.0,29.12,11111222 
ENP,ioos.station.NOAA.NDBC:WIWF1:1,2019-11-02T20:00:00Z,25.5870,-81.0440,1.0,29.38,11111222 
ENP,ioos.station.NOAA.NDBC:WIWF1:1,2019-11-02T21:00:00Z,25.5870,-81.0440,1.0,29.73,11111222 
ENP,ioos.station.NOAA.NDBC:WIWF1:1,2019-11-02T22:00:00Z,25.5870,-81.0440,1.0,29.78,11111222 
ENP,ioos.station.NOAA.NDBC:WIWF1:1,2019-11-02T23:00:00Z,25.5870,-81.0440,1.0,29.73,11111222 
ENP,ioos.station.NOAA.NDBC:WIWF1:1,2019-11-03T00:00:00Z,25.5870,-81.0440,1.0,29.56,11111222 
ENP,ioos.station.NOAA.NDBC:WIWF1:1,2019-11-03T01:00:00Z,25.5870,-81.0440,1.0,29.43,11111222 
ENP,ioos.station.NOAA.NDBC:WIWF1:1,2019-11-03T03:00:00Z,25.5870,-81.0440,1.0,29.35,11111222 
ENP,ioos.station.NOAA.NDBC:WIWF1:1,2019-11-03T05:00:00Z,25.5870,-81.0440,1.0,29.34,11111222 
ENP,ioos.station.NOAA.NDBC:WIWF1:1,2019-11-03T07:00:00Z,25.5870,-81.0440,1.0,28.61,11111222 
ENP,ioos.station.NOAA.NDBC:WIWF1:1,2019-11-03T08:00:00Z,25.5870,-81.0440,1.0,28.17,11111222 
ENP,ioos.station.NOAA.NDBC:WIWF1:1,2019-11-03T09:00:00Z,25.5870,-81.0440,1.0,28.03,11111222 
ENP,ioos.station.NOAA.NDBC:WIWF1:1,2019-11-03T10:00:00Z,25.5870,-81.0440,1.0,27.82,11111222 
ENP,ioos.station.NOAA.NDBC:WIWF1:1,2019-11-03T11:00:00Z,25.5870,-81.0440,1.0,27.59,11111222 
ENP,ioos.station.NOAA.NDBC:WIWF1:1,2019-11-03T12:00:00Z,25.5870,-81.0440,1.0,27.5,11111222 
ENP,ioos.station.NOAA.NDBC:WIWF1:1,2019-11-03T13:00:00Z,25.5870,-81.0440,1.0,27.65,11111222 
ENP,ioos.station.NOAA.NDBC:WIWF1:1,2019-11-03T14:00:00Z,25.5870,-81.0440,1.0,27.73,11111222 
ENP,ioos.station.NOAA.NDBC:WIWF1:1,2019-11-03T15:00:00Z,25.5870,-81.0440,1.0,27.75,11111222 
ENP,ioos.station.NOAA.NDBC:WIWF1:1,2019-11-03T16:00:00Z,25.5870,-81.0440,1.0,27.82,11111222 
ENP,ioos.station.NOAA.NDBC:WIWF1:1,2019-11-03T17:00:00Z,25.5870,-81.0440,1.0,27.82,11111222 
ENP,ioos.station.NOAA.NDBC:WIWF1:1,2019-11-03T19:00:00Z,25.5870,-81.0440,1.0,28.26,11111222 
ENP,ioos.station.NOAA.NDBC:WIWF1:1,2019-11-03T20:00:00Z,25.5870,-81.0440,1.0,28.73,11111222 
ENP,ioos.station.NOAA.NDBC:WIWF1:1,2019-11-03T21:00:00Z,25.5870,-81.0440,1.0,28.96,11111222 
ENP,ioos.station.NOAA.NDBC:WIWF1:1,2019-11-03T22:00:00Z,25.5870,-81.0440,1.0,29.08,11111222 
ENP,ioos.station.NOAA.NDBC:WIWF1:1,2019-11-03T23:00:00Z,25.5870,-81.0440,1.0,29.0,11111222 
ENP,ioos.station.NOAA.NDBC:WIWF1:1,2019-11-04T00:00:00Z,25.5870,-81.0440,1.0,28.72,11111222 
ENP,ioos.station.NOAA.NDBC:WIWF1:1,2019-11-04T02:00:00Z,25.5870,-81.0440,1.0,27.94,11111222 
ENP,ioos.station.NOAA.NDBC:WIWF1:1,2019-11-04T03:00:00Z,25.5870,-81.0440,1.0,27.67,11111222 
ENP,ioos.station.NOAA.NDBC:WIWF1:1,2019-11-04T05:00:00Z,25.5870,-81.0440,1.0,27.43,11111222 
ENP,ioos.station.NOAA.NDBC:WIWF1:1,2019-11-04T16:00:00Z,25.5870,-81.0440,1.0,26.01,11111222 
ENP,ioos.station.NOAA.NDBC:WIWF1:1,2019-11-04T17:00:00Z,25.5870,-81.0440,1.0,26.24,11111222 
ENP,ioos.station.NOAA.NDBC:WIWF1:1,2019-11-04T19:00:00Z,25.5870,-81.0440,1.0,26.51,11111222 
ENP,ioos.station.NOAA.NDBC:WIWF1:1,2019-11-04T20:00:00Z,25.5870,-81.0440,1.0,26.94,11111222 
ENP,ioos.station.NOAA.NDBC:WIWF1:1,2019-11-04T21:00:00Z,25.5870,-81.0440,1.0,27.41,11111222 
ENP,ioos.station.NOAA.NDBC:WIWF1:1,2019-11-04T22:00:00Z,25.5870,-81.0440,1.0,27.86,11111222 
ENP,ioos.station.NOAA.NDBC:WIWF1:1,2019-11-04T23:00:00Z,25.5870,-81.0440,1.0,28.2,11111222 
ENP,ioos.station.NOAA.NDBC:WIWF1:1,2019-11-05T00:00:00Z,25.5870,-81.0440,1.0,27.99,11111222 
ENP,ioos.station.NOAA.NDBC:WIWF1:1,2019-11-05T01:00:00Z,25.5870,-81.0440,1.0,27.83,11111222 
ENP,ioos.station.NOAA.NDBC:WIWF1:1,2019-11-05T03:00:00Z,25.5870,-81.0440,1.0,27.65,11111222 
ENP,ioos.station.NOAA.NDBC:WIWF1:1,2019-11-05T05:00:00Z,25.5870,-81.0440,1.0,27.53,11111222 
ENP,ioos.station.NOAA.NDBC:WIWF1:1,2019-11-05T07:00:00Z,25.5870,-81.0440,1.0,27.41,11111222 
ENP,ioos.station.NOAA.NDBC:WIWF1:1,2019-11-05T08:00:00Z,25.5870,-81.0440,1.0,27.25,11111222 
ENP,ioos.station.NOAA.NDBC:WIWF1:1,2019-11-05T09:00:00Z,25.5870,-81.0440,1.0,27.0,11111222 
ENP,ioos.station.NOAA.NDBC:WIWF1:1,2019-11-05T10:00:00Z,25.5870,-81.0440,1.0,26.89,11111222 
ENP,ioos.station.NOAA.NDBC:WIWF1:1,2019-11-05T11:00:00Z,25.5870,-81.0440,1.0,26.72,11111222 
ENP,ioos.station.NOAA.NDBC:WIWF1:1,2019-11-05T12:00:00Z,25.5870,-81.0440,1.0,26.07,11111222 
ENP,ioos.station.NOAA.NDBC:WIWF1:1,2019-11-05T13:00:00Z,25.5870,-81.0440,1.0,25.95,11111222 
ENP,ioos.station.NOAA.NDBC:WIWF1:1,2019-11-05T14:00:00Z,25.5870,-81.0440,1.0,26.04,11111222 
ENP,ioos.station.NOAA.NDBC:WIWF1:1,2019-11-05T15:00:00Z,25.5870,-81.0440,1.0,26.78,11111222 
ENP,ioos.station.NOAA.NDBC:WIWF1:1,2019-11-05T16:00:00Z,25.5870,-81.0440,1.0,27.06,11111222 
ENP,ioos.station.NOAA.NDBC:WIWF1:1,2019-11-05T17:00:00Z,25.5870,-81.0440,1.0,27.37,11111222 
ENP,ioos.station.NOAA.NDBC:WIWF1:1,2019-11-05T18:00:00Z,25.5870,-81.0440,1.0,27.49,11111222 
ENP,ioos.station.NOAA.NDBC:WIWF1:1,2019-11-05T19:00:00Z,25.5870,-81.0440,1.0,27.75,11111222 
ENP,ioos.station.NOAA.NDBC:WIWF1:1,2019-11-05T20:00:00Z,25.5870,-81.0440,1.0,27.85,11111222 
ENP,ioos.station.NOAA.NDBC:WIWF1:1,2019-11-05T21:00:00Z,25.5870,-81.0440,1.0,28.04,11111222 
ENP,ioos.station.NOAA.NDBC:WIWF1:1,2019-11-05T22:00:00Z,25.5870,-81.0440,1.0,28.25,11111222 
ENP,ioos.station.NOAA.NDBC:WIWF1:1,2019-11-05T23:00:00Z,25.5870,-81.0440,1.0,28.3,11111222 
ENP,ioos.station.NOAA.NDBC:WIWF1:1,2019-11-06T00:00:00Z,25.5870,-81.0440,1.0,28.3,11111222 
ENP,ioos.station.NOAA.NDBC:WIWF1:1,2019-11-06T01:00:00Z,25.5870,-81.0440,1.0,28.21,11111222 
ENP,ioos.station.NOAA.NDBC:WIWF1:1,2019-11-06T03:00:00Z,25.5870,-81.0440,1.0,27.89,11111222 
ENP,ioos.station.NOAA.NDBC:WIWF1:1,2019-11-06T05:00:00Z,25.5870,-81.0440,1.0,27.77,11111222 
ENP,ioos.station.NOAA.NDBC:WIWF1:1,2019-11-06T07:00:00Z,25.5870,-81.0440,1.0,27.74,11111222 
ENP,ioos.station.NOAA.NDBC:WIWF1:1,2019-11-06T08:00:00Z,25.5870,-81.0440,1.0,27.7,11111222 
ENP,ioos.station.NOAA.NDBC:WIWF1:1,2019-11-06T09:00:00Z,25.5870,-81.0440,1.0,27.63,11111222 
ENP,ioos.station.NOAA.NDBC:WIWF1:1,2019-11-06T10:00:00Z,25.5870,-81.0440,1.0,27.52,11111222 
ENP,ioos.station.NOAA.NDBC:WIWF1:1,2019-11-06T11:00:00Z,25.5870,-81.0440,1.0,27.37,11111222 
ENP,ioos.station.NOAA.NDBC:WIWF1:1,2019-11-06T12:00:00Z,25.5870,-81.0440,1.0,27.11,11111222 
ENP,ioos.station.NOAA.NDBC:WIWF1:1,2019-11-06T13:00:00Z,25.5870,-81.0440,1.0,26.73,11111222 
ENP,ioos.station.NOAA.NDBC:WIWF1:1,2019-11-06T14:00:00Z,25.5870,-81.0440,1.0,25.91,11111222 
ENP,ioos.station.NOAA.NDBC:WIWF1:1,2019-11-06T15:00:00Z,25.5870,-81.0440,1.0,25.91,11111222 
ENP,ioos.station.NOAA.NDBC:WIWF1:1,2019-11-06T16:00:00Z,25.5870,-81.0440,1.0,25.92,11111222 
ENP,ioos.station.NOAA.NDBC:WIWF1:1,2019-11-06T17:00:00Z,25.5870,-81.0440,1.0,26.04,11111222 
ENP,ioos.station.NOAA.NDBC:WIWF1:1,2019-11-06T19:00:00Z,25.5870,-81.0440,1.0,26.65,11111222 
ENP,ioos.station.NOAA.NDBC:WIWF1:1,2019-11-06T20:00:00Z,25.5870,-81.0440,1.0,26.92,11111222 
ENP,ioos.station.NOAA.NDBC:WIWF1:1,2019-11-06T21:00:00Z,25.5870,-81.0440,1.0,27.1,11111222 
ENP,ioos.station.NOAA.NDBC:WIWF1:1,2019-11-06T22:00:00Z,25.5870,-81.0440,1.0,27.55,11111222 
ENP,ioos.station.NOAA.NDBC:WIWF1:1,2019-11-06T23:00:00Z,25.5870,-81.0440,1.0,27.96,11111222 
ENP,ioos.station.NOAA.NDBC:WIWF1:1,2019-11-07T00:00:00Z,25.5870,-81.0440,1.0,28.0,11111222 
ENP,ioos.station.NOAA.NDBC:WIWF1:1,2019-11-07T01:00:00Z,25.5870,-81.0440,1.0,27.88,11111222 
ENP,ioos.station.NOAA.NDBC:WIWF1:1,2019-11-07T03:00:00Z,25.5870,-81.0440,1.0,27.59,11111222 
ENP,ioos.station.NOAA.NDBC:WIWF1:1,2019-11-07T05:00:00Z,25.5870,-81.0440,1.0,27.28,11111222 
ENP,ioos.station.NOAA.NDBC:WIWF1:1,2019-11-07T07:00:00Z,25.5870,-81.0440,1.0,27.12,11111222 
ENP,ioos.station.NOAA.NDBC:WIWF1:1,2019-11-07T08:00:00Z,25.5870,-81.0440,1.0,27.08,11111222 
ENP,ioos.station.NOAA.NDBC:WIWF1:1,2019-11-07T09:00:00Z,25.5870,-81.0440,1.0,26.97,11111222 
ENP,ioos.station.NOAA.NDBC:WIWF1:1,2019-11-07T10:00:00Z,25.5870,-81.0440,1.0,26.94,11111222 
ENP,ioos.station.NOAA.NDBC:WIWF1:1,2019-11-07T11:00:00Z,25.5870,-81.0440,1.0,26.73,11111222 
ENP,ioos.station.NOAA.NDBC:WIWF1:1,2019-11-07T12:00:00Z,25.5870,-81.0440,1.0,26.51,11111222 
ENP,ioos.station.NOAA.NDBC:WIWF1:1,2019-11-07T13:00:00Z,25.5870,-81.0440,1.0,26.29,11111222 
ENP,ioos.station.NOAA.NDBC:WIWF1:1,2019-11-07T14:00:00Z,25.5870,-81.0440,1.0,26.04,11111222 
ENP,ioos.station.NOAA.NDBC:WIWF1:1,2019-11-07T15:00:00Z,25.5870,-81.0440,1.0,25.72,11111222 
ENP,ioos.station.NOAA.NDBC:WIWF1:1,2019-11-07T16:00:00Z,25.5870,-81.0440,1.0,25.59,11111222 
ENP,ioos.station.NOAA.NDBC:WIWF1:1,2019-11-07T17:00:00Z,25.5870,-81.0440,1.0,25.63,11111222 
ENP,ioos.station.NOAA.NDBC:WIWF1:1,2019-11-07T19:00:00Z,25.5870,-81.0440,1.0,26.76,11111222 
ENP,ioos.station.NOAA.NDBC:WIWF1:1,2019-11-07T20:00:00Z,25.5870,-81.0440,1.0,27.3,11111222 
ENP,ioos.station.NOAA.NDBC:WIWF1:1,2019-11-07T21:00:00Z,25.5870,-81.0440,1.0,27.47,11111222 
ENP,ioos.station.NOAA.NDBC:WIWF1:1,2019-11-07T22:00:00Z,25.5870,-81.0440,1.0,27.53,11111222 
ENP,ioos.station.NOAA.NDBC:WIWF1:1,2019-11-07T23:00:00Z,25.5870,-81.0440,1.0,27.55,11111222 
ENP,ioos.station.NOAA.NDBC:WIWF1:1,2019-11-08T00:00:00Z,25.5870,-81.0440,1.0,27.53,11111222 
ENP,ioos.station.NOAA.NDBC:WIWF1:1,2019-11-08T01:00:00Z,25.5870,-81.0440,1.0,27.53,11111222 
ENP,ioos.station.NOAA.NDBC:WIWF1:1,2019-11-08T03:00:00Z,25.5870,-81.0440,1.0,27.47,11111222 
ENP,ioos.station.NOAA.NDBC:WIWF1:1,2019-11-08T05:00:00Z,25.5870,-81.0440,1.0,27.34,11111222 
ENP,ioos.station.NOAA.NDBC:WIWF1:1,2019-11-08T07:00:00Z,25.5870,-81.0440,1.0,27.25,11111222 
ENP,ioos.station.NOAA.NDBC:WIWF1:1,2019-11-08T08:00:00Z,25.5870,-81.0440,1.0,27.22,11111222 
ENP,ioos.station.NOAA.NDBC:WIWF1:1,2019-11-08T09:00:00Z,25.5870,-81.0440,1.0,27.16,11111222 
ENP,ioos.station.NOAA.NDBC:WIWF1:1,2019-11-08T10:00:00Z,25.5870,-81.0440,1.0,27.1,11111222 
ENP,ioos.station.NOAA.NDBC:WIWF1:1,2019-11-08T11:00:00Z,25.5870,-81.0440,1.0,26.98,11111222 
ENP,ioos.station.NOAA.NDBC:WIWF1:1,2019-11-08T12:00:00Z,25.5870,-81.0440,1.0,26.84,11111222 
ENP,ioos.station.NOAA.NDBC:WIWF1:1,2019-11-08T14:00:00Z,25.5870,-81.0440,1.0,26.38,11111222 
ENP,ioos.station.NOAA.NDBC:WIWF1:1,2019-11-08T15:00:00Z,25.5870,-81.0440,1.0,26.13,11111222 
ENP,ioos.station.NOAA.NDBC:WIWF1:1,2019-11-08T17:00:00Z,25.5870,-81.0440,1.0,25.82,11111222 
ENP,ioos.station.NOAA.NDBC:WIWF1:1,2019-11-08T19:00:00Z,25.5870,-81.0440,1.0,26.56,11111222 
ENP,ioos.station.NOAA.NDBC:WIWF1:1,2019-11-08T20:00:00Z,25.5870,-81.0440,1.0,27.42,11111222 
ENP,ioos.station.NOAA.NDBC:WIWF1:1,2019-11-08T21:00:00Z,25.5870,-81.0440,1.0,27.7,11111222 
ENP,ioos.station.NOAA.NDBC:WIWF1:1,2019-11-08T22:00:00Z,25.5870,-81.0440,1.0,28.55,11111222 
ENP,ioos.station.NOAA.NDBC:WIWF1:1,2019-11-08T23:00:00Z,25.5870,-81.0440,1.0,28.4,11111222 
ENP,ioos.station.NOAA.NDBC:WIWF1:1,2019-11-09T00:00:00Z,25.5870,-81.0440,1.0,28.26,11111222 
ENP,ioos.station.NOAA.NDBC:WIWF1:1,2019-11-09T01:00:00Z,25.5870,-81.0440,1.0,28.14,11111222 
ENP,ioos.station.NOAA.NDBC:WIWF1:1,2019-11-09T02:00:00Z,25.5870,-81.0440,1.0,28.04,11111222 
ENP,ioos.station.NOAA.NDBC:WIWF1:1,2019-11-09T03:00:00Z,25.5870,-81.0440,1.0,27.86,11111222 
ENP,ioos.station.NOAA.NDBC:WIWF1:1,2019-11-09T05:00:00Z,25.5870,-81.0440,1.0,27.37,11111222 
ENP,ioos.station.NOAA.NDBC:WIWF1:1,2019-11-09T07:00:00Z,25.5870,-81.0440,1.0,27.67,11111222 
ENP,ioos.station.NOAA.NDBC:WIWF1:1,2019-11-09T08:00:00Z,25.5870,-81.0440,1.0,27.77,11111222 
ENP,ioos.station.NOAA.NDBC:WIWF1:1,2019-11-09T09:00:00Z,25.5870,-81.0440,1.0,27.83,11111222 
ENP,ioos.station.NOAA.NDBC:WIWF1:1,2019-11-09T10:00:00Z,25.5870,-81.0440,1.0,27.89,11111222 
ENP,ioos.station.NOAA.NDBC:WIWF1:1,2019-11-09T11:00:00Z,25.5870,-81.0440,1.0,27.92,11111222 
ENP,ioos.station.NOAA.NDBC:WIWF1:1,2019-11-09T12:00:00Z,25.5870,-81.0440,1.0,27.87,11111222 
ENP,ioos.station.NOAA.NDBC:WIWF1:1,2019-11-09T13:00:00Z,25.5870,-81.0440,1.0,27.77,11111222 
ENP,ioos.station.NOAA.NDBC:WIWF1:1,2019-11-09T14:00:00Z,25.5870,-81.0440,1.0,27.53,11111222 
ENP,ioos.station.NOAA.NDBC:WIWF1:1,2019-11-09T15:00:00Z,25.5870,-81.0440,1.0,27.09,11111222 
ENP,ioos.station.NOAA.NDBC:WIWF1:1,2019-11-09T16:00:00Z,25.5870,-81.0440,1.0,26.42,11111222 
ENP,ioos.station.NOAA.NDBC:WIWF1:1,2019-11-09T17:00:00Z,25.5870,-81.0440,1.0,25.76,11111222 
ENP,ioos.station.NOAA.NDBC:WIWF1:1,2019-11-09T19:00:00Z,25.5870,-81.0440,1.0,25.39,11111222 
ENP,ioos.station.NOAA.NDBC:WIWF1:1,2019-11-09T20:00:00Z,25.5870,-81.0440,1.0,25.29,11111222 
ENP,ioos.station.NOAA.NDBC:WIWF1:1,2019-11-09T21:00:00Z,25.5870,-81.0440,1.0,25.22,11111222 
ENP,ioos.station.NOAA.NDBC:WIWF1:1,2019-11-09T22:00:00Z,25.5870,-81.0440,1.0,25.15,11111222 
ENP,ioos.station.NOAA.NDBC:WIWF1:1,2019-11-09T23:00:00Z,25.5870,-81.0440,1.0,25.06,11111222 
ENP,ioos.station.NOAA.NDBC:WIWF1:1,2019-11-10T00:00:00Z,25.5870,-81.0440,1.0,24.92,11111222 
ENP,ioos.station.NOAA.NDBC:WIWF1:1,2019-11-10T01:00:00Z,25.5870,-81.0440,1.0,24.72,11111222 
ENP,ioos.station.NOAA.NDBC:WIWF1:1,2019-11-10T02:00:00Z,25.5870,-81.0440,1.0,24.48,11111222 
ENP,ioos.station.NOAA.NDBC:WIWF1:1,2019-11-10T03:00:00Z,25.5870,-81.0440,1.0,24.25,11111222 
ENP,ioos.station.NOAA.NDBC:WIWF1:1,2019-11-10T05:00:00Z,25.5870,-81.0440,1.0,23.86,11111222 
ENP,ioos.station.NOAA.NDBC:WIWF1:1,2019-11-10T07:00:00Z,25.5870,-81.0440,1.0,23.44,11111222 
ENP,ioos.station.NOAA.NDBC:WIWF1:1,2019-11-10T08:00:00Z,25.5870,-81.0440,1.0,23.44,11111222 
ENP,ioos.station.NOAA.NDBC:WIWF1:1,2019-11-10T09:00:00Z,25.5870,-81.0440,1.0,23.47,11111222 
ENP,ioos.station.NOAA.NDBC:WIWF1:1,2019-11-10T10:00:00Z,25.5870,-81.0440,1.0,23.41,11111222 
ENP,ioos.station.NOAA.NDBC:WIWF1:1,2019-11-10T11:00:00Z,25.5870,-81.0440,1.0,23.36,11111222 
ENP,ioos.station.NOAA.NDBC:WIWF1:1,2019-11-10T12:00:00Z,25.5870,-81.0440,1.0,23.23,11111222 
ENP,ioos.station.NOAA.NDBC:WIWF1:1,2019-11-10T13:00:00Z,25.5870,-81.0440,1.0,23.1,11111222 
ENP,ioos.station.NOAA.NDBC:WIWF1:1,2019-11-10T14:00:00Z,25.5870,-81.0440,1.0,22.86,11111222 
ENP,ioos.station.NOAA.NDBC:WIWF1:1,2019-11-10T15:00:00Z,25.5870,-81.0440,1.0,22.57,11111222 
ENP,ioos.station.NOAA.NDBC:WIWF1:1,2019-11-10T16:00:00Z,25.5870,-81.0440,1.0,22.36,11111222 
ENP,ioos.station.NOAA.NDBC:WIWF1:1,2019-11-10T17:00:00Z,25.5870,-81.0440,1.0,22.62,11111222 
ENP,ioos.station.NOAA.NDBC:WIWF1:1,2019-11-10T19:00:00Z,25.5870,-81.0440,1.0,22.89,11111222 
ENP,ioos.station.NOAA.NDBC:WIWF1:1,2019-11-10T20:00:00Z,25.5870,-81.0440,1.0,23.01,11111222 
ENP,ioos.station.NOAA.NDBC:WIWF1:1,2019-11-10T21:00:00Z,25.5870,-81.0440,1.0,23.49,11111222 
ENP,ioos.station.NOAA.NDBC:WIWF1:1,2019-11-10T22:00:00Z,25.5870,-81.0440,1.0,23.68,11111222 
ENP,ioos.station.NOAA.NDBC:WIWF1:1,2019-11-11T01:00:00Z,25.5870,-81.0440,1.0,23.54,11111222 
ENP,ioos.station.NOAA.NDBC:WIWF1:1,2019-11-11T09:00:00Z,25.5870,-81.0440,1.0,22.79,11111222 
ENP,ioos.station.NOAA.NDBC:WIWF1:1,2019-11-11T13:00:00Z,25.5870,-81.0440,1.0,22.72,11111222 
ENP,ioos.station.NOAA.NDBC:WIWF1:1,2019-11-11T17:00:00Z,25.5870,-81.0440,1.0,22.61,11111222 
ENP,ioos.station.NOAA.NDBC:WIWF1:1,2019-11-11T19:00:00Z,25.5870,-81.0440,1.0,23.01,11111222 
ENP,ioos.station.NOAA.NDBC:WIWF1:1,2019-11-11T20:00:00Z,25.5870,-81.0440,1.0,23.04,11111222 
ENP,ioos.station.NOAA.NDBC:WIWF1:1,2019-11-11T21:00:00Z,25.5870,-81.0440,1.0,23.28,11111222 
ENP,ioos.station.NOAA.NDBC:WIWF1:1,2019-11-11T22:00:00Z,25.5870,-81.0440,1.0,23.46,11111222 
ENP,ioos.station.NOAA.NDBC:WIWF1:1,2019-11-11T23:00:00Z,25.5870,-81.0440,1.0,23.61,11111222 
ENP,ioos.station.NOAA.NDBC:WIWF1:1,2019-11-12T00:00:00Z,25.5870,-81.0440,1.0,23.78,11111222 
ENP,ioos.station.NOAA.NDBC:WIWF1:1,2019-11-12T01:00:00Z,25.5870,-81.0440,1.0,23.89,11111222 
ENP,ioos.station.NOAA.NDBC:WIWF1:1,2019-11-12T02:00:00Z,25.5870,-81.0440,1.0,23.99,11111222 
ENP,ioos.station.NOAA.NDBC:WIWF1:1,2019-11-12T03:00:00Z,25.5870,-81.0440,1.0,24.01,11111222 
ENP,ioos.station.NOAA.NDBC:WIWF1:1,2019-11-12T05:00:00Z,25.5870,-81.0440,1.0,23.59,11111222 
ENP,ioos.station.NOAA.NDBC:WIWF1:1,2019-11-12T07:00:00Z,25.5870,-81.0440,1.0,23.63,11111222 
ENP,ioos.station.NOAA.NDBC:WIWF1:1,2019-11-12T08:00:00Z,25.5870,-81.0440,1.0,23.94,11111222 
ENP,ioos.station.NOAA.NDBC:WIWF1:1,2019-11-12T09:00:00Z,25.5870,-81.0440,1.0,24.06,11111222 
ENP,ioos.station.NOAA.NDBC:WIWF1:1,2019-11-12T10:00:00Z,25.5870,-81.0440,1.0,24.14,11111222 
ENP,ioos.station.NOAA.NDBC:WIWF1:1,2019-11-12T11:00:00Z,25.5870,-81.0440,1.0,24.18,11111222 
ENP,ioos.station.NOAA.NDBC:WIWF1:1,2019-11-12T12:00:00Z,25.5870,-81.0440,1.0,24.16,11111222 
ENP,ioos.station.NOAA.NDBC:WIWF1:1,2019-11-12T14:00:00Z,25.5870,-81.0440,1.0,24.17,11111222 
ENP,ioos.station.NOAA.NDBC:WIWF1:1,2019-11-12T15:00:00Z,25.5870,-81.0440,1.0,24.18,11111222 
ENP,ioos.station.NOAA.NDBC:WIWF1:1,2019-11-12T16:00:00Z,25.5870,-81.0440,1.0,24.16,11111222 
ENP,ioos.station.NOAA.NDBC:WIWF1:1,2019-11-12T17:00:00Z,25.5870,-81.0440,1.0,24.16,11111222 
ENP,ioos.station.NOAA.NDBC:WIWF1:1,2019-11-12T19:00:00Z,25.5870,-81.0440,1.0,24.34,11111222 
ENP,ioos.station.NOAA.NDBC:WIWF1:1,2019-11-12T20:00:00Z,25.5870,-81.0440,1.0,24.56,11111222 
ENP,ioos.station.NOAA.NDBC:WIWF1:1,2019-11-12T21:00:00Z,25.5870,-81.0440,1.0,24.9,11111222 
ENP,ioos.station.NOAA.NDBC:WIWF1:1,2019-11-12T22:00:00Z,25.5870,-81.0440,1.0,25.23,11111222 
ENP,ioos.station.NOAA.NDBC:WIWF1:1,2019-11-12T23:00:00Z,25.5870,-81.0440,1.0,25.33,11111222 
ENP,ioos.station.NOAA.NDBC:WIWF1:1,2019-11-13T00:00:00Z,25.5870,-81.0440,1.0,25.36,11111222 
ENP,ioos.station.NOAA.NDBC:WIWF1:1,2019-11-13T01:00:00Z,25.5870,-81.0440,1.0,25.34,11111222 
ENP,ioos.station.NOAA.NDBC:WIWF1:1,2019-11-13T02:00:00Z,25.5870,-81.0440,1.0,25.31,11111222 
ENP,ioos.station.NOAA.NDBC:WIWF1:1,2019-11-13T03:00:00Z,25.5870,-81.0440,1.0,25.27,11111222 
ENP,ioos.station.NOAA.NDBC:WIWF1:1,2019-11-13T05:00:00Z,25.5870,-81.0440,1.0,25.14,11111222 
ENP,ioos.station.NOAA.NDBC:WIWF1:1,2019-11-13T07:00:00Z,25.5870,-81.0440,1.0,25.05,11111222 
ENP,ioos.station.NOAA.NDBC:WIWF1:1,2019-11-13T08:00:00Z,25.5870,-81.0440,1.0,25.08,11111222 
ENP,ioos.station.NOAA.NDBC:WIWF1:1,2019-11-13T09:00:00Z,25.5870,-81.0440,1.0,25.12,11111222 
ENP,ioos.station.NOAA.NDBC:WIWF1:1,2019-11-13T10:00:00Z,25.5870,-81.0440,1.0,25.11,11111222 
ENP,ioos.station.NOAA.NDBC:WIWF1:1,2019-11-13T11:00:00Z,25.5870,-81.0440,1.0,25.08,11111222 
ENP,ioos.station.NOAA.NDBC:WIWF1:1,2019-11-13T12:00:00Z,25.5870,-81.0440,1.0,25.08,11111222 
ENP,ioos.station.NOAA.NDBC:WIWF1:1,2019-11-13T13:00:00Z,25.5870,-81.0440,1.0,25.08,11111222 
ENP,ioos.station.NOAA.NDBC:WIWF1:1,2019-11-13T14:00:00Z,25.5870,-81.0440,1.0,25.05,11111222 
ENP,ioos.station.NOAA.NDBC:WIWF1:1,2019-11-13T15:00:00Z,25.5870,-81.0440,1.0,25.02,11111222 
ENP,ioos.station.NOAA.NDBC:WIWF1:1,2019-11-13T17:00:00Z,25.5870,-81.0440,1.0,25.0,11111222 
ENP,ioos.station.NOAA.NDBC:WIWF1:1,2019-11-13T19:00:00Z,25.5870,-81.0440,1.0,25.25,11111222 
ENP,ioos.station.NOAA.NDBC:WIWF1:1,2019-11-13T20:00:00Z,25.5870,-81.0440,1.0,25.56,11111222 
ENP,ioos.station.NOAA.NDBC:WIWF1:1,2019-11-13T21:00:00Z,25.5870,-81.0440,1.0,25.61,11111222 
ENP,ioos.station.NOAA.NDBC:WIWF1:1,2019-11-13T22:00:00Z,25.5870,-81.0440,1.0,25.58,11111222 
ENP,ioos.station.NOAA.NDBC:WIWF1:1,2019-11-13T23:00:00Z,25.5870,-81.0440,1.0,25.57,11111222 
ENP,ioos.station.NOAA.NDBC:WIWF1:1,2019-11-14T00:00:00Z,25.5870,-81.0440,1.0,25.58,11111222 
ENP,ioos.station.NOAA.NDBC:WIWF1:1,2019-11-14T01:00:00Z,25.5870,-81.0440,1.0,25.58,11111222 
ENP,ioos.station.NOAA.NDBC:WIWF1:1,2019-11-14T03:00:00Z,25.5870,-81.0440,1.0,25.5,11111222 
ENP,ioos.station.NOAA.NDBC:WIWF1:1,2019-11-14T05:00:00Z,25.5870,-81.0440,1.0,24.68,11111222 
ENP,ioos.station.NOAA.NDBC:WIWF1:1,2019-11-14T07:00:00Z,25.5870,-81.0440,1.0,24.53,11111222 
ENP,ioos.station.NOAA.NDBC:WIWF1:1,2019-11-14T08:00:00Z,25.5870,-81.0440,1.0,24.71,11111222 
ENP,ioos.station.NOAA.NDBC:WIWF1:1,2019-11-14T09:00:00Z,25.5870,-81.0440,1.0,24.87,11111222 
ENP,ioos.station.NOAA.NDBC:WIWF1:1,2019-11-14T10:00:00Z,25.5870,-81.0440,1.0,24.88,11111222 
ENP,ioos.station.NOAA.NDBC:WIWF1:1,2019-11-14T11:00:00Z,25.5870,-81.0440,1.0,24.86,11111222 
ENP,ioos.station.NOAA.NDBC:WIWF1:1,2019-11-14T12:00:00Z,25.5870,-81.0440,1.0,24.85,11111222 
ENP,ioos.station.NOAA.NDBC:WIWF1:1,2019-11-14T13:00:00Z,25.5870,-81.0440,1.0,24.83,11111222 
ENP,ioos.station.NOAA.NDBC:WIWF1:1,2019-11-14T14:00:00Z,25.5870,-81.0440,1.0,24.81,11111222 
ENP,ioos.station.NOAA.NDBC:WIWF1:1,2019-11-14T15:00:00Z,25.5870,-81.0440,1.0,24.79,11111222 
ENP,ioos.station.NOAA.NDBC:WIWF1:1,2019-11-14T16:00:00Z,25.5870,-81.0440,1.0,24.82,11111222 
ENP,ioos.station.NOAA.NDBC:WIWF1:1,2019-11-14T17:00:00Z,25.5870,-81.0440,1.0,24.93,11111222 
ENP,ioos.station.NOAA.NDBC:WIWF1:1,2019-11-14T19:00:00Z,25.5870,-81.0440,1.0,25.31,11111222 
ENP,ioos.station.NOAA.NDBC:WIWF1:1,2019-11-14T20:00:00Z,25.5870,-81.0440,1.0,25.4,11111222 
ENP,ioos.station.NOAA.NDBC:WIWF1:1,2019-11-14T21:00:00Z,25.5870,-81.0440,1.0,25.39,11111222 
ENP,ioos.station.NOAA.NDBC:WIWF1:1,2019-11-14T23:00:00Z,25.5870,-81.0440,1.0,25.35,11111222 